Weather History for Kingsville NAS, TX

Change the Weather History Date:

Wednesday, February 20, 2013

  Actual Average Record
Temperature  
Mean Temperature 70 °F -  
Max Temperature 77 °F 71 °F 88 °F (2014)
Min Temperature 64 °F 51 °F 66 °F (2014)
Cooling Degree Days 6    
Growing Degree Days 20 (Base 50)    
Moisture  
Dew Point 65 °F    
Average Humidity 87    
Maximum Humidity 96    
Minimum Humidity 69    
Precipitation  
Precipitation 0.05 in - - ()
Sea Level Pressure  
Sea Level Pressure 29.87 in    
Wind  
Wind Speed 12 mph (SE)    
Max Wind Speed 28 mph    
Max Gust Speed 36 mph    
Visibility 7 miles    
Events Rain    
Averages and records for this station are not official NWS values.
T = Trace of Precipitation, MM = Missing Value Source: NWS Daily Summary

Daily Weather History Graph

Daily Weather History Graph

Search for Another Location

Airport:

Trip Planner

Search our weather history database for the weather conditions in past years. The results will help you decide how hot, cold, wet, or windy it might be!

Date:

Astronomy

Feb. 20, 2013 Rise Set
Actual Time 7:03 AM CST 6:26 PM CST
Civil Twilight 6:40 AM CST 6:50 PM CST
Nautical Twilight 6:12 AM CST 7:17 PM CST
Astronomical Twilight 5:45 AM CST 7:44 PM CST
Moon 2:04 PM CST (2/20) 3:09 AM CST (2/20)
Length of Visible Light 12h 10m
Length of Day
11h 22m
Waxing Gibbous, 76% of the Moon is Illuminated
Feb 20
Waxing Gibbous
Feb 25
Full
Mar 4
Last Quarter
Mar 11
New
Mar 19
First Quarter

Hourly Weather History & Observations

Time (CST) Temp. Dew Point Humidity Pressure Visibility Wind Dir Wind Speed Gust Speed Precip Events Conditions
12:56 AM 64.0 °F 57.0 °F 78% 30.01 in 10.0 mi ESE 5.8 mph - N/A   Overcast
1:56 AM 64.9 °F 59.0 °F 81% 30.00 in 10.0 mi East 8.1 mph - N/A   Overcast
2:56 AM 66.0 °F 60.1 °F 81% 29.99 in 10.0 mi East 6.9 mph - N/A   Overcast
3:56 AM 66.0 °F 60.1 °F 81% 29.97 in 10.0 mi East 9.2 mph - N/A   Overcast
4:56 AM 66.0 °F 61.0 °F 84% 29.97 in 9.0 mi East 9.2 mph - 0.00 in Rain Light Rain
5:34 AM 66.2 °F 62.6 °F 88% 29.96 in 8.0 mi ENE 6.9 mph - 0.00 in Rain Light Rain
5:45 AM 64.4 °F 62.6 °F 94% 29.95 in 7.0 mi SE 4.6 mph - 0.00 in Rain Light Rain
5:53 AM 64.4 °F 62.6 °F 94% 29.95 in 8.0 mi East 5.8 mph - 0.00 in Rain Light Rain
5:56 AM 64.9 °F 62.1 °F 90% 29.95 in 8.0 mi East 5.8 mph - 0.00 in Rain Light Rain
6:18 AM 64.4 °F 62.6 °F 94% 29.94 in 7.0 mi East 6.9 mph - 0.01 in Rain Light Rain
6:26 AM 64.4 °F 62.6 °F 94% 29.95 in 8.0 mi ESE 4.6 mph - 0.02 in Rain Light Rain
6:37 AM 66.2 °F 64.4 °F 94% 29.94 in 10.0 mi SE 16.1 mph 21.9 mph 0.02 in   Overcast
6:42 AM 66.2 °F 64.4 °F 94% 29.94 in 9.0 mi ESE 12.7 mph 21.9 mph 0.02 in   Overcast
6:56 AM 66.9 °F 64.0 °F 90% 29.94 in 8.0 mi ESE 8.1 mph - 0.02 in Rain Light Rain
7:04 AM 66.2 °F 64.4 °F 94% 29.95 in 9.0 mi Variable 4.6 mph - 0.00 in   Overcast
7:27 AM 66.2 °F 64.4 °F 94% 29.96 in 8.0 mi East 13.8 mph 20.7 mph 0.00 in   Overcast
7:56 AM 68.0 °F 64.9 °F 90% 29.94 in 6.0 mi SE 13.8 mph - 0.00 in   Overcast
8:05 AM 68.0 °F 66.2 °F 94% 29.96 in 6.0 mi ESE 10.4 mph 17.3 mph 0.00 in Rain Light Rain
8:22 AM 69.8 °F 66.2 °F 88% 29.96 in 7.0 mi SE 17.3 mph 24.2 mph 0.00 in   Overcast
8:34 AM 69.8 °F 66.2 °F 88% 29.95 in 6.0 mi SE 17.3 mph 23.0 mph 0.00 in Rain Light Rain
8:56 AM 69.1 °F 66.0 °F 90% 29.94 in 6.0 mi SE 18.4 mph 26.5 mph 0.00 in   Overcast
9:05 AM 69.8 °F 66.2 °F 88% 29.94 in 5.0 mi SSE 17.3 mph - 0.01 in Rain Light Rain
9:11 AM 69.8 °F 66.2 °F 88% 29.94 in 3.0 mi SSE 18.4 mph 25.3 mph 0.03 in Rain Light Rain
9:19 AM 69.8 °F 66.2 °F 88% 29.93 in 3.0 mi SSE 20.7 mph 26.5 mph 0.04 in Rain Rain
9:31 AM 68.0 °F 66.2 °F 94% 29.93 in 5.0 mi South 18.4 mph 29.9 mph 0.04 in Rain Light Rain
9:51 AM 68.0 °F 66.2 °F 94% 29.93 in 6.0 mi South 20.7 mph - 0.05 in   Overcast
9:56 AM 68.0 °F 66.9 °F 96% 29.92 in 5.0 mi South 17.3 mph - 0.05 in   Overcast
10:04 AM 69.8 °F 66.2 °F 88% 29.92 in 5.0 mi SSE 17.3 mph 27.6 mph N/A   Overcast
10:37 AM 69.8 °F 66.2 °F 88% 29.90 in 6.0 mi SE 23.0 mph 29.9 mph N/A   Overcast
10:56 AM 71.1 °F 68.0 °F 90% 29.88 in 6.0 mi SE 18.4 mph 26.5 mph N/A   Overcast
11:56 AM 73.0 °F 68.0 °F 84% 29.87 in 7.0 mi SE 16.1 mph 21.9 mph N/A   Overcast
12:03 PM 73.4 °F 66.2 °F 78% 29.88 in 8.0 mi SE 17.3 mph 27.6 mph N/A   Overcast
12:56 PM 77.0 °F 66.0 °F 69% 29.82 in 10.0 mi SE 27.6 mph 33.4 mph N/A   Mostly Cloudy
1:56 PM 77.0 °F 66.9 °F 71% 29.79 in 9.0 mi SE 18.4 mph - N/A   Overcast
2:56 PM 75.9 °F 66.9 °F 74% 29.75 in 8.0 mi SE 24.2 mph 27.6 mph N/A   Mostly Cloudy
3:56 PM 77.0 °F 66.9 °F 71% 29.73 in 8.0 mi SE 23.0 mph 31.1 mph N/A   Mostly Cloudy
4:56 PM 73.9 °F 66.9 °F 79% 29.72 in 8.0 mi SE 18.4 mph 35.7 mph N/A   Mostly Cloudy
5:56 PM 72.0 °F 66.9 °F 84% 29.71 in 7.0 mi SE 21.9 mph 31.1 mph N/A   Mostly Cloudy
6:56 PM 70.0 °F 66.9 °F 90% 29.70 in 8.0 mi SE 24.2 mph 31.1 mph N/A   Mostly Cloudy
7:41 PM 69.8 °F 66.2 °F 88% 29.71 in 8.0 mi SE 19.6 mph 27.6 mph N/A   Mostly Cloudy
7:56 PM 70.0 °F 68.0 °F 93% 29.70 in 7.0 mi SE 20.7 mph 29.9 mph N/A   Overcast
8:44 PM 69.8 °F 66.2 °F 88% 29.71 in 8.0 mi SE 17.3 mph 32.2 mph N/A   Mostly Cloudy
8:56 PM 70.0 °F 66.9 °F 90% 29.70 in 7.0 mi SE 20.7 mph 29.9 mph N/A   Mostly Cloudy
9:56 PM 71.1 °F 66.9 °F 87% 29.69 in 8.0 mi SE 24.2 mph 31.1 mph N/A   Overcast
10:56 PM 71.1 °F 68.0 °F 90% 29.67 in 7.0 mi SE 21.9 mph 32.2 mph N/A   Overcast
11:56 PM 71.1 °F 66.9 °F 87% 29.66 in 7.0 mi SE 18.4 mph 27.6 mph N/A   Overcast